Time,TemperatureF,DewpointF,PressureIn,WindDirection,WindDirectionDegrees,WindSpeedMPH,WindSpeedGustMPH,Humidity,HourlyPrecipIn,Conditions,Clouds,dailyrainin,SoftwareType,DateUTC
2013-06-30 00:00:00,69.8,69.8,29.74,South,180,5.0,5.0,100,0.00,,,0.00,VWS V14.01,2013-06-30 04:00:00,
2013-06-30 00:01:00,69.8,69.8,29.74,South,180,5.0,5.0,100,0.00,,,0.00,VWS V14.01,2013-06-30 04:01:00,
2013-06-30 00:11:00,69.8,69.8,29.74,South,180,5.0,5.0,100,0.00,,,0.00,VWS V14.01,2013-06-30 04:11:00,
2013-06-30 00:24:00,69.8,69.8,29.74,South,180,5.0,5.0,100,0.00,,,0.00,VWS V14.01,2013-06-30 04:24:00,
2013-06-30 00:48:00,69.8,69.8,29.74,South,180,5.0,5.0,100,0.00,,,0.00,VWS V14.01,2013-06-30 04:48:00,
2013-06-30 00:53:00,69.8,69.8,29.74,South,180,5.0,5.0,100,0.00,,,0.00,VWS V14.01,2013-06-30 04:53:00,
2013-06-30 00:56:00,69.8,69.8,29.74,SSE,160,4.0,4.0,100,0.00,,,0.00,VWS V14.01,2013-06-30 04:56:00,
2013-06-30 00:58:00,69.8,69.8,29.74,South,180,5.0,5.0,100,0.00,,,0.00,VWS V14.01,2013-06-30 04:58:00,
2013-06-30 01:03:00,69.8,69.8,29.74,SSE,160,4.0,4.0,100,0.00,,,0.00,VWS V14.01,2013-06-30 05:03:00,
2013-06-30 01:24:00,69.8,69.8,29.74,SSE,160,4.0,4.0,100,0.00,,,0.00,VWS V14.01,2013-06-30 05:24:00,
2013-06-30 01:30:00,69.8,69.8,29.74,SSE,160,4.0,4.0,100,0.00,,,0.00,VWS V14.01,2013-06-30 05:30:00,
2013-06-30 01:38:00,69.8,69.8,29.74,SSE,160,4.0,4.0,100,0.00,,,0.00,VWS V14.01,2013-06-30 05:38:00,
2013-06-30 01:46:00,69.8,69.8,29.74,SSE,160,4.0,4.0,100,0.00,,,0.00,VWS V14.01,2013-06-30 05:46:00,
2013-06-30 01:52:00,69.8,69.8,29.74,SSE,160,4.0,4.0,100,0.00,,,0.00,VWS V14.01,2013-06-30 05:52:00,
2013-06-30 01:56:00,69.8,69.8,29.74,SSE,150,6.0,6.0,100,0.00,,,0.00,VWS V14.01,2013-06-30 05:56:00,
2013-06-30 01:57:00,69.8,69.8,29.74,SSE,160,4.0,4.0,100,0.00,,,0.00,VWS V14.01,2013-06-30 05:57:00,
2013-06-30 02:02:00,69.8,69.8,29.74,SSE,150,6.0,6.0,100,0.00,,,0.00,VWS V14.01,2013-06-30 06:02:00,
2013-06-30 02:22:00,69.8,69.8,29.74,SSE,150,6.0,6.0,100,0.00,,,0.00,VWS V14.01,2013-06-30 06:22:00,
2013-06-30 02:28:00,69.8,69.8,29.74,SSE,150,6.0,6.0,100,0.00,,,0.00,VWS V14.01,2013-06-30 06:28:00,
2013-06-30 02:37:00,69.8,68.0,29.75,SSE,150,5.0,5.0,94,0.00,,,0.00,VWS V14.01,2013-06-30 06:37:00,
2013-06-30 02:40:00,69.8,68.0,29.75,SSE,150,5.0,6.0,94,0.00,,,0.00,VWS V14.01,2013-06-30 06:40:00,
2013-06-30 02:45:00,69.8,68.0,29.75,SSE,150,5.0,5.0,94,0.00,,,0.00,VWS V14.01,2013-06-30 06:45:00,
2013-06-30 02:51:00,69.8,68.0,29.75,SSE,150,5.0,5.0,94,0.00,,,0.00,VWS V14.01,2013-06-30 06:51:00,
2013-06-30 02:56:00,69.8,69.8,29.75,SSE,160,5.0,5.0,100,0.00,,,0.00,VWS V14.01,2013-06-30 06:56:00,
2013-06-30 02:59:00,69.8,69.8,29.75,SSE,160,5.0,5.0,100,0.00,,,0.00,VWS V14.01,2013-06-30 06:59:00,
2013-06-30 03:04:00,69.8,69.8,29.75,SSE,160,5.0,5.0,100,0.00,,,0.00,VWS V14.01,2013-06-30 07:04:00,
2013-06-30 03:22:00,69.8,69.8,29.75,SSE,160,5.0,5.0,100,0.00,,,0.00,VWS V14.01,2013-06-30 07:22:00,
2013-06-30 03:32:00,69.8,69.8,29.75,SSE,160,5.0,5.0,100,0.00,,,0.00,VWS V14.01,2013-06-30 07:32:00,
2013-06-30 03:41:00,69.8,69.8,29.75,SSE,160,5.0,5.0,100,0.00,,,0.00,VWS V14.01,2013-06-30 07:41:00,
2013-06-30 03:51:00,69.8,69.8,29.75,SSE,160,5.0,5.0,100,0.00,,,0.00,VWS V14.01,2013-06-30 07:51:00,
2013-06-30 03:56:00,69.8,69.8,29.75,SSE,160,5.0,5.0,100,0.00,,,0.00,VWS V14.01,2013-06-30 07:56:00,
2013-06-30 04:01:00,69.8,69.8,29.75,SSE,150,5.0,5.0,100,0.00,,,0.00,VWS V14.01,2013-06-30 08:01:00,
2013-06-30 04:09:00,69.8,69.8,29.75,SSE,150,5.0,5.0,100,0.00,,,0.00,VWS V14.01,2013-06-30 08:09:00,
2013-06-30 04:17:00,69.8,69.8,29.75,SSE,150,5.0,5.0,100,0.00,,,0.00,VWS V14.01,2013-06-30 08:17:00,
2013-06-30 04:32:00,69.8,69.8,29.75,SSE,150,5.0,5.0,100,0.00,,,0.00,VWS V14.01,2013-06-30 08:32:00,
2013-06-30 04:39:00,68.0,68.0,29.76,SSE,160,3.0,3.0,100,0.00,,,0.00,VWS V14.01,2013-06-30 08:39:00,
2013-06-30 04:42:00,69.8,69.8,29.75,SSE,150,5.0,5.0,100,0.00,,,0.00,VWS V14.01,2013-06-30 08:42:00,
2013-06-30 04:47:00,68.0,68.0,29.76,SSE,160,3.0,3.0,100,0.00,,,0.00,VWS V14.01,2013-06-30 08:47:00,
2013-06-30 04:56:00,69.8,69.8,29.76,SSE,150,6.0,6.0,100,0.00,,,0.00,VWS V14.01,2013-06-30 08:56:00,
2013-06-30 04:59:00,69.8,69.8,29.76,SSE,150,6.0,6.0,100,0.00,,,0.00,VWS V14.01,2013-06-30 08:59:00,
2013-06-30 05:05:00,69.8,69.8,29.76,SSE,150,6.0,6.0,100,0.00,,,0.00,VWS V14.01,2013-06-30 09:05:00,
2013-06-30 05:08:00,69.8,69.8,29.77,SSE,150,6.0,6.0,100,0.00,,,0.00,VWS V14.01,2013-06-30 09:08:00,
2013-06-30 05:11:00,69.8,69.8,29.77,SSE,150,6.0,6.0,100,0.00,,,0.00,VWS V14.01,2013-06-30 09:11:00,
2013-06-30 05:16:00,69.8,69.8,29.77,SSE,150,6.0,6.0,100,0.00,,,0.00,VWS V14.01,2013-06-30 09:16:00,
2013-06-30 05:30:00,69.8,69.8,29.77,SSE,150,6.0,6.0,100,0.00,,,0.00,VWS V14.01,2013-06-30 09:30:00,
2013-06-30 05:38:00,69.8,69.8,29.77,SSE,150,6.0,6.0,100,0.00,,,0.00,VWS V14.01,2013-06-30 09:38:00,
2013-06-30 05:44:00,69.8,69.8,29.78,North,0,0.0,0.0,100,0.00,,,0.00,VWS V14.01,2013-06-30 09:44:00,
2013-06-30 05:48:00,69.8,69.8,29.78,North,0,0.0,6.0,100,0.00,,,0.00,VWS V14.01,2013-06-30 09:48:00,
2013-06-30 05:52:00,69.8,69.8,29.78,North,0,0.0,0.0,100,0.00,,,0.00,VWS V14.01,2013-06-30 09:52:00,
2013-06-30 05:56:00,69.8,69.8,29.78,South,170,3.0,3.0,100,0.00,,,0.00,VWS V14.01,2013-06-30 09:56:00,
2013-06-30 05:59:00,69.8,69.8,29.78,North,0,0.0,0.0,100,0.00,,,0.00,VWS V14.01,2013-06-30 09:59:00,
2013-06-30 06:04:00,69.8,69.8,29.78,South,170,3.0,3.0,100,0.00,,,0.00,VWS V14.01,2013-06-30 10:04:00,
2013-06-30 06:06:00,69.8,69.8,29.79,SSE,160,4.0,4.0,100,0.00,,,0.00,VWS V14.01,2013-06-30 10:06:00,
2013-06-30 06:09:00,69.8,69.8,29.79,SSE,160,4.0,4.0,100,0.00,,,0.00,VWS V14.01,2013-06-30 10:09:00,
2013-06-30 06:14:00,69.8,69.8,29.79,SSE,160,4.0,4.0,100,0.00,,,0.00,VWS V14.01,2013-06-30 10:14:00,
2013-06-30 06:16:00,69.8,69.8,29.79,SSE,150,5.0,5.0,100,0.00,,,0.00,VWS V14.01,2013-06-30 10:16:00,
2013-06-30 06:19:00,69.8,69.8,29.79,SSE,150,5.0,5.0,100,0.00,,,0.00,VWS V14.01,2013-06-30 10:19:00,
2013-06-30 06:23:00,69.8,69.8,29.80,SSE,150,4.0,4.0,100,0.00,,,0.00,VWS V14.01,2013-06-30 10:23:00,
2013-06-30 06:24:00,69.8,69.8,29.79,SSE,150,5.0,5.0,100,0.00,,,0.00,VWS V14.01,2013-06-30 10:24:00,
2013-06-30 06:29:00,69.8,69.8,29.80,SSE,150,4.0,4.0,100,0.00,,,0.00,VWS V14.01,2013-06-30 10:29:00,
2013-06-30 06:37:00,69.8,69.8,29.80,SSE,150,4.0,4.0,100,0.00,,,0.00,VWS V14.01,2013-06-30 10:37:00,
2013-06-30 06:40:00,69.8,69.8,29.81,SSE,160,4.0,4.0,100,0.00,,,0.00,VWS V14.01,2013-06-30 10:40:00,
2013-06-30 06:44:00,69.8,69.8,29.81,SSE,160,4.0,4.0,100,0.00,,,0.00,VWS V14.01,2013-06-30 10:44:00,
2013-06-30 06:49:00,69.8,69.8,29.81,SSE,160,4.0,4.0,100,0.00,,,0.00,VWS V14.01,2013-06-30 10:49:00,
2013-06-30 06:56:00,69.8,69.8,29.82,South,180,3.0,3.0,100,0.00,,,0.00,VWS V14.01,2013-06-30 10:56:00,
2013-06-30 06:57:00,69.8,69.8,29.81,SSE,160,4.0,4.0,100,0.00,,,0.00,VWS V14.01,2013-06-30 10:57:00,
2013-06-30 07:02:00,69.8,69.8,29.82,South,180,3.0,3.0,100,0.00,,,0.00,VWS V14.01,2013-06-30 11:02:00,
2013-06-30 07:05:00,69.8,69.8,29.82,SSE,160,3.0,3.0,100,0.00,,,0.00,VWS V14.01,2013-06-30 11:05:00,
2013-06-30 07:07:00,69.8,69.8,29.82,South,180,3.0,3.0,100,0.00,,,0.00,VWS V14.01,2013-06-30 11:07:00,
2013-06-30 07:12:00,69.8,69.8,29.82,SSE,160,3.0,3.0,100,0.00,,,0.00,VWS V14.01,2013-06-30 11:12:00,
2013-06-30 07:13:00,71.6,71.6,29.82,South,170,4.0,4.0,100,0.00,,,0.00,VWS V14.01,2013-06-30 11:13:00,
2013-06-30 07:17:00,71.6,71.6,29.82,South,170,4.0,4.0,100,0.00,,,0.00,VWS V14.01,2013-06-30 11:17:00,
2013-06-30 07:22:00,71.6,71.6,29.82,South,170,4.0,4.0,100,0.00,,,0.00,VWS V14.01,2013-06-30 11:22:00,
2013-06-30 07:36:00,71.6,71.6,29.82,South,170,4.0,4.0,100,0.00,,,0.00,VWS V14.01,2013-06-30 11:36:00,
2013-06-30 07:39:00,32.0,32.0,29.83,SSE,160,9.0,9.0,100,0.00,,,0.00,VWS V14.01,2013-06-30 11:39:00,
2013-06-30 07:42:00,32.0,32.0,29.83,SSE,160,9.0,9.0,100,0.00,,,0.00,VWS V14.01,2013-06-30 11:42:00,
2013-06-30 07:47:00,32.0,32.0,29.83,SSE,160,9.0,9.0,100,0.00,,,0.00,VWS V14.01,2013-06-30 11:47:00,
2013-06-30 07:56:00,32.0,32.0,29.84,SSE,150,5.0,5.0,100,0.00,,,0.00,VWS V14.01,2013-06-30 11:56:00,
2013-06-30 07:59:00,32.0,32.0,29.84,SSE,150,5.0,9.0,100,0.00,,,0.00,VWS V14.01,2013-06-30 11:59:00,
2013-06-30 08:04:00,32.0,32.0,29.84,SSE,150,5.0,5.0,100,0.00,,,0.00,VWS V14.01,2013-06-30 12:04:00,
2013-06-30 08:07:00,32.0,32.0,29.84,SSE,160,5.0,5.0,100,0.00,,,0.00,VWS V14.01,2013-06-30 12:07:00,
2013-06-30 08:11:00,32.0,32.0,29.84,SSE,160,5.0,5.0,100,0.00,,,0.00,VWS V14.01,2013-06-30 12:11:00,
2013-06-30 08:16:00,32.0,32.0,29.84,SSE,160,5.0,5.0,100,0.00,,,0.00,VWS V14.01,2013-06-30 12:16:00,
2013-06-30 08:18:00,32.0,32.0,29.84,SSE,160,5.0,5.0,100,0.00,,,0.00,VWS V14.01,2013-06-30 12:18:00,
2013-06-30 08:21:00,32.0,32.0,29.84,SSE,160,5.0,5.0,100,0.00,,,0.00,VWS V14.01,2013-06-30 12:21:00,
2013-06-30 08:27:00,32.0,32.0,29.84,SSE,160,5.0,5.0,100,0.00,,,0.00,VWS V14.01,2013-06-30 12:27:00,
2013-06-30 08:36:00,32.0,32.0,29.84,SSE,160,5.0,5.0,100,0.00,,,0.00,VWS V14.01,2013-06-30 12:36:00,
2013-06-30 08:50:00,32.0,32.0,29.84,SSE,160,5.0,5.0,100,0.00,,,0.00,VWS V14.01,2013-06-30 12:50:00,
2013-06-30 08:56:00,32.0,32.0,29.84,South,170,4.0,4.0,100,0.00,,,0.00,VWS V14.01,2013-06-30 12:56:00,
2013-06-30 08:59:00,32.0,32.0,29.84,South,170,4.0,5.0,100,0.00,,,0.00,VWS V14.01,2013-06-30 12:59:00,
2013-06-30 09:04:00,32.0,32.0,29.84,South,170,4.0,4.0,100,0.00,,,0.00,VWS V14.01,2013-06-30 13:04:00,
2013-06-30 09:09:00,32.0,32.0,29.85,South,170,4.0,4.0,100,0.00,,,0.00,VWS V14.01,2013-06-30 13:09:00,
2013-06-30 09:15:00,32.0,32.0,29.85,South,170,4.0,4.0,100,0.00,,,0.00,VWS V14.01,2013-06-30 13:15:00,
2013-06-30 09:22:00,32.0,32.0,29.85,South,170,4.0,4.0,100,0.00,,,0.00,VWS V14.01,2013-06-30 13:22:00,
2013-06-30 09:25:00,32.0,32.0,29.85,South,170,6.0,6.0,100,0.00,,,0.00,VWS V14.01,2013-06-30 13:25:00,
2013-06-30 09:28:00,32.0,32.0,29.85,South,170,6.0,6.0,100,0.00,,,0.00,VWS V14.01,2013-06-30 13:28:00,
2013-06-30 09:33:00,32.0,32.0,29.85,South,170,6.0,6.0,100,0.00,,,0.00,VWS V14.01,2013-06-30 13:33:00,
2013-06-30 09:39:00,32.0,32.0,29.85,South,170,6.0,6.0,100,0.00,,,0.00,VWS V14.01,2013-06-30 13:39:00,
2013-06-30 09:47:00,32.0,32.0,29.85,South,170,5.0,5.0,100,0.00,,,0.00,VWS V14.01,2013-06-30 13:47:00,
2013-06-30 09:49:00,32.0,32.0,29.85,South,170,6.0,6.0,100,0.00,,,0.00,VWS V14.01,2013-06-30 13:49:00,
2013-06-30 09:54:00,32.0,32.0,29.85,South,170,5.0,5.0,100,0.00,,,0.00,VWS V14.01,2013-06-30 13:54:00,
2013-06-30 09:56:00,32.0,32.0,29.85,South,170,6.0,6.0,100,0.00,,,0.00,VWS V14.01,2013-06-30 13:56:00,
2013-06-30 10:00:00,32.0,32.0,29.85,South,170,6.0,6.0,100,0.00,,,0.00,VWS V14.01,2013-06-30 14:00:00,
2013-06-30 10:04:00,32.0,32.0,29.85,South,170,6.0,6.0,100,0.00,,,0.00,VWS V14.01,2013-06-30 14:04:00,
2013-06-30 10:06:00,32.0,32.0,29.85,South,180,5.0,5.0,100,0.00,,,0.00,VWS V14.01,2013-06-30 14:06:00,
2013-06-30 10:10:00,32.0,32.0,29.85,South,180,5.0,6.0,100,0.00,,,0.00,VWS V14.01,2013-06-30 14:10:00,
2013-06-30 10:14:00,32.0,32.0,29.85,South,180,5.0,5.0,100,0.00,,,0.00,VWS V14.01,2013-06-30 14:14:00,
2013-06-30 10:19:00,32.0,32.0,29.85,South,180,5.0,5.0,100,0.00,,,0.00,VWS V14.01,2013-06-30 14:19:00,
2013-06-30 10:25:00,32.0,32.0,29.85,South,170,5.0,5.0,100,0.00,,,0.00,VWS V14.01,2013-06-30 14:25:00,
2013-06-30 10:29:00,32.0,32.0,29.86,South,180,5.0,5.0,100,0.00,,,0.00,VWS V14.01,2013-06-30 14:29:00,
2013-06-30 10:33:00,32.0,32.0,29.86,South,180,5.0,5.0,100,0.00,,,0.00,VWS V14.01,2013-06-30 14:33:00,
2013-06-30 10:37:00,32.0,32.0,29.86,South,180,5.0,5.0,100,0.00,,,0.00,VWS V14.01,2013-06-30 14:37:00,
2013-06-30 10:40:00,32.0,32.0,29.86,South,170,4.0,4.0,100,0.00,,,0.00,VWS V14.01,2013-06-30 14:40:00,
2013-06-30 10:44:00,32.0,32.0,29.86,South,170,4.0,5.0,100,0.00,,,0.00,VWS V14.01,2013-06-30 14:44:00,
2013-06-30 10:47:00,32.0,32.0,29.86,SSE,160,5.0,5.0,100,0.00,,,0.00,VWS V14.01,2013-06-30 14:47:00,
2013-06-30 10:49:00,32.0,32.0,29.86,South,170,4.0,4.0,100,0.00,,,0.00,VWS V14.01,2013-06-30 14:49:00,
2013-06-30 10:54:00,32.0,32.0,29.86,SSE,160,5.0,5.0,100,0.00,,,0.00,VWS V14.01,2013-06-30 14:54:00,
2013-06-30 10:56:00,32.0,32.0,29.86,North,0,0.0,0.0,100,0.00,,,0.00,VWS V14.01,2013-06-30 14:56:00,
2013-06-30 11:00:00,32.0,32.0,29.86,North,0,0.0,5.0,100,0.00,,,0.00,VWS V14.01,2013-06-30 15:00:00,
2013-06-30 11:04:00,32.0,32.0,29.86,North,0,0.0,0.0,100,0.00,,,0.00,VWS V14.01,2013-06-30 15:04:00,
2013-06-30 11:07:00,32.0,32.0,29.86,SSE,150,6.0,6.0,100,0.00,,,0.00,VWS V14.01,2013-06-30 15:07:00,
2013-06-30 11:10:00,32.0,32.0,29.86,North,0,0.0,0.0,100,0.00,,,0.00,VWS V14.01,2013-06-30 15:10:00,
2013-06-30 11:15:00,32.0,32.0,29.86,SSE,150,6.0,6.0,100,0.00,,,0.00,VWS V14.01,2013-06-30 15:15:00,
2013-06-30 11:17:00,32.0,32.0,29.87,SSE,150,6.0,6.0,100,0.00,,,0.00,VWS V14.01,2013-06-30 15:17:00,
2013-06-30 11:21:00,32.0,32.0,29.87,SSE,150,6.0,6.0,100,0.00,,,0.00,VWS V14.01,2013-06-30 15:21:00,
2013-06-30 11:25:00,32.0,32.0,29.87,SSE,150,4.0,4.0,100,0.00,,,0.00,VWS V14.01,2013-06-30 15:25:00,
2013-06-30 11:26:00,32.0,32.0,29.87,SSE,150,6.0,6.0,100,0.00,,,0.00,VWS V14.01,2013-06-30 15:26:00,
2013-06-30 11:31:00,32.0,32.0,29.87,SSE,150,4.0,6.0,100,0.00,,,0.00,VWS V14.01,2013-06-30 15:31:00,
2013-06-30 11:43:00,32.0,32.0,29.87,SSE,150,4.0,4.0,100,0.00,,,0.00,VWS V14.01,2013-06-30 15:43:00,
2013-06-30 11:53:00,32.0,32.0,29.87,SSE,150,4.0,4.0,100,0.00,,,0.00,VWS V14.01,2013-06-30 15:53:00,
2013-06-30 11:56:00,32.0,32.0,29.87,South,170,3.0,3.0,100,0.00,,,0.00,VWS V14.01,2013-06-30 15:56:00,
2013-06-30 12:04:00,32.0,32.0,29.87,South,170,3.0,4.0,100,0.00,,,0.00,VWS V14.01,2013-06-30 16:04:00,
2013-06-30 12:09:00,32.0,32.0,29.87,South,170,3.0,3.0,100,0.00,,,0.00,VWS V14.01,2013-06-30 16:09:00,
2013-06-30 12:14:00,69.8,69.8,29.87,South,170,6.0,6.0,100,0.00,,,0.00,VWS V14.01,2013-06-30 16:14:00,
2013-06-30 12:21:00,69.8,69.8,29.87,South,170,6.0,6.0,100,0.00,,,0.00,VWS V14.01,2013-06-30 16:21:00,
2013-06-30 12:25:00,69.8,69.8,29.87,South,170,5.0,5.0,100,0.00,,,0.00,VWS V14.01,2013-06-30 16:25:00,
2013-06-30 12:26:00,69.8,69.8,29.87,South,170,6.0,6.0,100,0.00,,,0.00,VWS V14.01,2013-06-30 16:26:00,
2013-06-30 12:31:00,69.8,69.8,29.87,South,170,5.0,5.0,100,0.00,,,0.00,VWS V14.01,2013-06-30 16:31:00,
2013-06-30 12:40:00,71.6,71.6,29.87,South,170,3.0,3.0,100,0.00,,,0.00,VWS V14.01,2013-06-30 16:40:00,
2013-06-30 12:44:00,71.6,71.6,29.87,South,170,3.0,5.0,100,0.00,,,0.00,VWS V14.01,2013-06-30 16:44:00,
2013-06-30 12:48:00,71.6,71.6,29.87,South,170,3.0,3.0,100,0.00,,,0.00,VWS V14.01,2013-06-30 16:48:00,
2013-06-30 12:56:00,69.8,69.8,29.88,South,170,6.0,6.0,100,0.00,,,0.00,VWS V14.01,2013-06-30 16:56:00,
2013-06-30 13:00:00,69.8,69.8,29.88,South,170,6.0,6.0,100,0.00,,,0.00,VWS V14.01,2013-06-30 17:00:00,
2013-06-30 13:04:00,69.8,69.8,29.88,South,170,6.0,6.0,100,0.00,,,0.00,VWS V14.01,2013-06-30 17:04:00,
2013-06-30 13:18:00,69.8,69.8,29.88,South,170,6.0,6.0,100,0.00,,,0.00,VWS V14.01,2013-06-30 17:18:00,
2013-06-30 13:19:00,71.6,71.6,29.88,SSW,200,9.0,9.0,100,0.00,,,0.00,VWS V14.01,2013-06-30 17:19:00,
2013-06-30 13:23:00,71.6,71.6,29.88,SSW,200,9.0,9.0,100,0.00,,,0.00,VWS V14.01,2013-06-30 17:23:00,
2013-06-30 13:28:00,71.6,71.6,29.88,SSW,200,9.0,9.0,100,0.00,,,0.00,VWS V14.01,2013-06-30 17:28:00,
2013-06-30 13:33:00,71.6,71.6,29.88,South,180,5.0,5.0,100,0.00,,,0.00,VWS V14.01,2013-06-30 17:33:00,
2013-06-30 13:40:00,71.6,71.6,29.88,South,180,5.0,5.0,100,0.00,,,0.00,VWS V14.01,2013-06-30 17:40:00,
2013-06-30 13:45:00,71.6,71.6,29.88,South,180,5.0,5.0,100,0.00,,,0.00,VWS V14.01,2013-06-30 17:45:00,
2013-06-30 13:56:00,71.6,69.8,29.88,SSE,150,6.0,6.0,94,0.00,,,0.00,VWS V14.01,2013-06-30 17:56:00,
2013-06-30 13:59:00,71.6,69.8,29.88,SSE,150,6.0,6.0,94,0.00,,,0.00,VWS V14.01,2013-06-30 17:59:00,
2013-06-30 14:04:00,71.6,69.8,29.88,SSE,150,6.0,6.0,94,0.00,,,0.00,VWS V14.01,2013-06-30 18:04:00,
2013-06-30 14:39:00,71.6,67.9,29.88,SSE,160,6.0,6.0,88,0.00,,OVC015,0.00,VWS V14.01,2013-06-30 18:39:00,
2013-06-30 14:43:00,71.6,69.8,29.88,SSE,150,6.0,6.0,94,0.00,,OVC015,0.00,VWS V14.01,2013-06-30 18:43:00,
2013-06-30 14:48:00,71.6,67.9,29.88,SSE,160,6.0,6.0,88,0.00,,OVC015,0.00,VWS V14.01,2013-06-30 18:48:00,
2013-06-30 14:56:00,71.6,66.2,29.89,South,180,6.0,6.0,83,0.00,,OVC017,0.00,VWS V14.01,2013-06-30 18:56:00,
2013-06-30 14:58:00,71.6,67.9,29.88,SSE,160,6.0,6.0,88,0.00,,OVC015,0.00,VWS V14.01,2013-06-30 18:58:00,
2013-06-30 15:03:00,71.6,66.2,29.89,South,180,6.0,6.0,83,0.00,,OVC017,0.00,VWS V14.01,2013-06-30 19:03:00,
2013-06-30 15:17:00,71.6,66.2,29.89,South,180,6.0,6.0,83,0.00,,OVC017,0.00,VWS V14.01,2013-06-30 19:17:00,
2013-06-30 15:38:00,71.6,66.2,29.89,South,180,6.0,6.0,83,0.00,,OVC017,0.00,VWS V14.01,2013-06-30 19:38:00,
2013-06-30 15:48:00,71.6,66.2,29.89,South,180,6.0,6.0,83,0.00,,OVC017,0.00,VWS V14.01,2013-06-30 19:48:00,
2013-06-30 15:53:00,71.6,66.2,29.89,South,180,6.0,6.0,83,0.00,,OVC017,0.00,VWS V14.01,2013-06-30 19:53:00,
2013-06-30 15:56:00,69.8,66.1,29.89,South,170,9.0,9.0,88,0.00,,,0.00,VWS V14.01,2013-06-30 19:56:00,
2013-06-30 15:58:00,71.6,66.2,29.89,South,180,6.0,6.0,83,0.00,,OVC017,0.00,VWS V14.01,2013-06-30 19:58:00,
2013-06-30 16:03:00,69.8,66.1,29.89,South,170,9.0,9.0,88,0.00,,,0.00,VWS V14.01,2013-06-30 20:03:00,
2013-06-30 16:12:00,69.8,66.1,29.89,South,170,9.0,9.0,88,0.00,,,0.00,VWS V14.01,2013-06-30 20:12:00,
2013-06-30 16:24:00,69.8,66.1,29.89,South,170,9.0,9.0,88,0.00,,,0.00,VWS V14.01,2013-06-30 20:24:00,
2013-06-30 16:49:00,69.8,66.1,29.89,South,170,9.0,9.0,88,0.00,,,0.00,VWS V14.01,2013-06-30 20:49:00,
2013-06-30 16:54:00,69.8,66.1,29.89,South,170,9.0,9.0,88,0.00,,,0.00,VWS V14.01,2013-06-30 20:54:00,
2013-06-30 16:56:00,71.6,69.8,29.90,SSE,150,8.0,8.0,94,0.00,,OVC020,0.00,VWS V14.01,2013-06-30 20:56:00,
2013-06-30 16:59:00,69.8,66.1,29.89,South,170,9.0,9.0,88,0.00,,,0.00,VWS V14.01,2013-06-30 20:59:00,
2013-06-30 17:04:00,71.6,69.8,29.90,SSE,150,8.0,8.0,94,0.00,,OVC020,0.00,VWS V14.01,2013-06-30 21:04:00,
2013-06-30 17:25:00,71.6,69.8,29.90,SSE,160,6.0,6.0,94,0.00,,OVC022,0.00,VWS V14.01,2013-06-30 21:25:00,
2013-06-30 17:29:00,71.6,69.8,29.90,SSE,160,6.0,8.0,94,0.00,,OVC022,0.00,VWS V14.01,2013-06-30 21:29:00,
2013-06-30 17:33:00,71.6,69.8,29.90,SSE,160,6.0,6.0,94,0.00,,OVC022,0.00,VWS V14.01,2013-06-30 21:33:00,
2013-06-30 17:45:00,71.6,69.8,29.90,SSE,160,6.0,6.0,94,0.00,,OVC022,0.00,VWS V14.01,2013-06-30 21:45:00,
2013-06-30 17:54:00,71.6,69.8,29.90,SSE,160,6.0,6.0,94,0.00,,OVC022,0.00,VWS V14.01,2013-06-30 21:54:00,
2013-06-30 17:56:00,69.8,69.8,29.89,SSE,150,4.0,4.0,100,0.00,,,0.00,VWS V14.01,2013-06-30 21:56:00,
2013-06-30 17:59:00,69.8,69.8,29.89,SSE,150,4.0,4.0,100,0.00,,,0.00,VWS V14.01,2013-06-30 21:59:00,
2013-06-30 18:04:00,69.8,69.8,29.89,SSE,150,4.0,4.0,100,0.00,,,0.00,VWS V14.01,2013-06-30 22:04:00,
2013-06-30 18:17:00,71.6,69.8,29.90,SSE,150,5.0,5.0,94,0.00,,,0.00,VWS V14.01,2013-06-30 22:17:00,
2013-06-30 18:21:00,71.6,69.8,29.90,SSE,150,5.0,5.0,94,0.00,,,0.00,VWS V14.01,2013-06-30 22:21:00,
2013-06-30 18:26:00,71.6,69.8,29.90,SSE,150,5.0,5.0,94,0.00,,,0.00,VWS V14.01,2013-06-30 22:26:00,
2013-06-30 18:36:00,69.8,69.8,29.91,SSE,160,5.0,5.0,100,0.00,,,0.00,VWS V14.01,2013-06-30 22:36:00,
2013-06-30 18:40:00,69.8,69.8,29.91,SSE,160,5.0,5.0,100,0.00,,,0.00,VWS V14.01,2013-06-30 22:40:00,
2013-06-30 18:44:00,69.8,69.8,29.91,SSE,160,5.0,5.0,100,0.00,,,0.00,VWS V14.01,2013-06-30 22:44:00,
2013-06-30 18:55:00,69.8,69.8,29.91,SSE,160,5.0,5.0,100,0.00,,,0.00,VWS V14.01,2013-06-30 22:55:00,
2013-06-30 18:56:00,69.8,69.8,29.92,SSE,160,5.0,5.0,100,0.00,,,0.00,VWS V14.01,2013-06-30 22:56:00,
2013-06-30 19:00:00,69.8,69.8,29.92,SSE,160,5.0,5.0,100,0.00,,,0.00,VWS V14.01,2013-06-30 23:00:00,
2013-06-30 19:05:00,69.8,69.8,29.92,SSE,160,5.0,5.0,100,0.00,,,0.00,VWS V14.01,2013-06-30 23:05:00,
2013-06-30 19:32:00,69.8,69.8,29.91,South,180,8.0,8.0,100,0.00,,-RA,0.00,VWS V14.01,2013-06-30 23:32:00,
2013-06-30 19:36:00,69.8,69.8,29.91,South,180,8.0,8.0,100,0.00,,-RA,0.00,VWS V14.01,2013-06-30 23:36:00,
2013-06-30 19:41:00,69.8,69.8,29.91,South,180,8.0,8.0,100,0.00,,-RA,0.00,VWS V14.01,2013-06-30 23:41:00,
2013-06-30 19:47:00,69.8,69.8,29.91,South,180,8.0,8.0,100,0.00,,-RA,0.00,VWS V14.01,2013-06-30 23:47:00,
2013-06-30 19:52:00,69.8,69.8,29.92,South,180,6.0,6.0,100,0.00,,,0.00,VWS V14.01,2013-06-30 23:52:00,
2013-06-30 19:55:00,69.8,69.8,29.92,South,180,6.0,8.0,100,0.00,,,0.00,VWS V14.01,2013-06-30 23:55:00,
2013-06-30 19:59:00,69.8,69.8,29.92,South,180,6.0,6.0,100,0.00,,,0.00,VWS V14.01,2013-06-30 23:59:00,
2013-06-30 20:00:00,69.8,69.8,29.92,South,170,5.0,5.0,100,0.00,,,0.00,VWS V14.01,2013-07-01 00:00:00,
2013-06-30 20:04:00,69.8,69.8,29.92,South,170,5.0,5.0,100,0.00,,,0.00,VWS V14.01,2013-07-01 00:04:00,
2013-06-30 20:09:00,69.8,69.8,29.92,South,170,5.0,5.0,100,0.00,,,0.00,VWS V14.01,2013-07-01 00:09:00,
2013-06-30 20:13:00,69.8,69.8,29.92,South,180,5.0,5.0,100,0.00,,-RA,0.00,VWS V14.01,2013-07-01 00:13:00,
2013-06-30 20:17:00,69.8,69.8,29.92,South,180,5.0,5.0,100,0.00,,-RA,0.00,VWS V14.01,2013-07-01 00:17:00,
2013-06-30 20:21:00,69.8,69.8,29.92,South,180,5.0,5.0,100,0.00,,-RA,0.00,VWS V14.01,2013-07-01 00:21:00,
2013-06-30 20:30:00,69.8,69.8,29.92,South,180,5.0,5.0,100,0.00,,-RA,0.00,VWS V14.01,2013-07-01 00:30:00,
2013-06-30 20:35:00,69.8,69.8,29.92,South,180,5.0,5.0,100,0.00,,-RA,0.00,VWS V14.01,2013-07-01 00:35:00,
2013-06-30 20:58:00,69.8,69.8,29.91,SSE,150,6.0,6.0,100,0.03,,RA,0.03,VWS V14.01,2013-07-01 00:58:00,
2013-06-30 21:03:00,69.8,69.8,29.91,SSE,150,8.0,8.0,100,0.02,, +RA,0.02,VWS V14.01,2013-07-01 01:03:00,
2013-06-30 21:21:00,69.8,69.8,29.91,SSE,150,8.0,8.0,100,0.02,, +RA,0.02,VWS V14.01,2013-07-01 01:21:00,
2013-06-30 21:26:00,69.8,69.8,29.91,SSE,150,8.0,8.0,100,0.02,, +RA,0.02,VWS V14.01,2013-07-01 01:26:00,
2013-06-30 21:33:00,69.8,69.8,29.91,SSE,150,8.0,8.0,100,0.02,, +RA,0.02,VWS V14.01,2013-07-01 01:33:00,
2013-06-30 21:34:00,69.8,69.8,29.92,South,170,8.0,8.0,100,0.05,,-RA,0.08,VWS V14.01,2013-07-01 01:34:00,
2013-06-30 21:38:00,69.8,69.8,29.92,South,170,8.0,8.0,100,0.08,,-RA,0.08,VWS V14.01,2013-07-01 01:38:00,
2013-06-30 21:43:00,69.8,69.8,29.92,South,170,8.0,8.0,100,0.05,,-RA,0.08,VWS V14.01,2013-07-01 01:43:00,
2013-06-30 21:52:00,69.8,69.8,29.92,South,170,8.0,8.0,100,0.05,,-RA,0.08,VWS V14.01,2013-07-01 01:52:00,
2013-06-30 21:56:00,69.8,69.8,29.93,South,190,10.0,10.0,100,0.05,,-RA,0.10,VWS V14.01,2013-07-01 01:56:00,
2013-06-30 21:59:00,69.8,69.8,29.93,South,190,10.0,10.0,100,0.05,,-RA,0.10,VWS V14.01,2013-07-01 01:59:00,
2013-06-30 22:04:00,69.8,69.8,29.93,South,190,10.0,10.0,100,0.05,,-RA,0.10,VWS V14.01,2013-07-01 02:04:00,
2013-06-30 22:10:00,69.8,69.8,29.93,SSW,200,13.0,13.0,100,0.00,,-RA,0.00,VWS V14.01,2013-07-01 02:10:00,
2013-06-30 22:14:00,69.8,69.8,29.93,SSW,200,13.0,13.0,100,0.05,,-RA,0.00,VWS V14.01,2013-07-01 02:14:00,
2013-06-30 22:19:00,69.8,69.8,29.93,SSW,200,13.0,13.0,100,0.00,,-RA,0.00,VWS V14.01,2013-07-01 02:19:00,
2013-06-30 22:25:00,69.8,69.8,29.93,SSW,200,13.0,13.0,100,0.00,,-RA,0.00,VWS V14.01,2013-07-01 02:25:00,
2013-06-30 22:28:00,69.8,69.8,29.93,SSW,200,13.0,13.0,100,0.00,,-RA,0.00,VWS V14.01,2013-07-01 02:28:00,
2013-06-30 22:33:00,69.8,69.8,29.93,SSW,200,13.0,13.0,100,0.00,,-RA,0.00,VWS V14.01,2013-07-01 02:33:00,
2013-06-30 22:52:00,69.8,69.8,29.93,SSW,200,13.0,13.0,100,0.00,,-RA,0.00,VWS V14.01,2013-07-01 02:52:00,
2013-06-30 22:56:00,69.8,69.8,29.93,SSW,210,10.0,10.0,100,0.00,,,0.00,VWS V14.01,2013-07-01 02:56:00,
2013-06-30 22:58:00,69.8,69.8,29.93,SSW,200,13.0,13.0,100,0.00,,-RA,0.00,VWS V14.01,2013-07-01 02:58:00,
2013-06-30 23:03:00,69.8,69.8,29.93,SSW,210,10.0,10.0,100,0.00,,,0.00,VWS V14.01,2013-07-01 03:03:00,
2013-06-30 23:12:00,69.8,69.8,29.93,SSW,210,10.0,10.0,100,0.00,,,0.00,VWS V14.01,2013-07-01 03:12:00,
2013-06-30 23:17:00,69.8,69.8,29.93,SSW,210,10.0,10.0,100,0.00,,,0.00,VWS V14.01,2013-07-01 03:17:00,
2013-06-30 23:31:00,69.8,69.8,29.93,SSW,210,10.0,10.0,100,0.00,,,0.00,VWS V14.01,2013-07-01 03:31:00,
2013-06-30 23:38:00,69.8,69.8,29.93,SSW,210,10.0,10.0,100,0.00,,,0.00,VWS V14.01,2013-07-01 03:38:00,
2013-06-30 23:48:00,69.8,69.8,29.95,SSW,200,9.0,9.0,100,0.00,,,0.00,VWS V14.01,2013-07-01 03:48:00,
2013-06-30 23:52:00,69.8,69.8,29.95,SSW,200,9.0,10.0,100,0.00,,,0.00,VWS V14.01,2013-07-01 03:52:00,
2013-06-30 23:56:00,69.8,69.8,29.95,SSW,210,6.0,6.0,100,0.00,,,0.00,VWS V14.01,2013-07-01 03:56:00,
2013-06-30 23:57:00,69.8,69.8,29.95,SSW,200,9.0,9.0,100,0.00,,,0.00,VWS V14.01,2013-07-01 03:57:00,